There are multiple Weather-warnings   Click here for more information


Meteo18 Weather Cam more information Meteo18 Weather Cam


Thunder radar more information blitzortung!


warning for Snow/Ice more information rain snow radar


Visit our other weather sites:

Template documentation
and downloads

And another site



Weather Underground History page Text

Daily Summary for January 21, 2018 Units:  Both    English   Metric
« Previous Day
Next Day »
Daily Weekly Monthly Yearly Custom
  High: Low: Average:
Temperature: TemperatureC °F /  -17.8 °C 6.8 °F /  -14 °C 8.6 °F /  -13 °C
Dew Point: DewpointC °F /  -17.8 °C 6.0 °F /  -14.4 °C 7.4 °F /  -13.7 °C
Humidity: Humidity % 81 % 92 %
Wind Speed: WindSpeedKMH mph /  0 km/h - 9.7 mph /  15.6 km/h
Wind Gust: WindSpeedGustKMH mph /  0 km/h - -
Wind:- - WSW
Pressure: PressurehPa in /  0 hPa 1009.4 in /  34178.3 hPa -
Precipitation: 2.0 in /  50.8 mm    
Historical Graphs
 
 
Tabular Data for January 21, 2018
Time Temperature Dew Point Pressure Wind Wind Speed Wind Gust Humidity Rainfall Rate (Hourly)
TemperatureC °F /  -17.8 °C DewpointC °F /  -17.8 °C PressurehPa in /  0 hPa Calm     Humidity % HourlyPrecipMM in /  0 mm
00:04 10.1 °F /  -12.2 °C 7.3 °F /  -13.7 °C 1009.4 in /  34178.3 hPa WNW 22.7 mph /  36.5 km/h 33.8 mph /  54.4 km/h 83 % 0.0 in /  0 mm
00:10 10.1 °F /  -12.2 °C 7.3 °F /  -13.7 °C 1009.4 in /  34178.3 hPa West 19.5 mph /  31.4 km/h 32.2 mph /  51.8 km/h 83 % 0.0 in /  0 mm
00:16 9.9 °F /  -12.3 °C 7.0 °F /  -13.9 °C 1009.7 in /  34188.4 hPa West 24.1 mph /  38.8 km/h 35.4 mph /  57 km/h 82 % 0.0 in /  0 mm
00:22 9.9 °F /  -12.3 °C 7.0 °F /  -13.9 °C 1009.7 in /  34188.4 hPa West 9.7 mph /  15.6 km/h 27.4 mph /  44.1 km/h 82 % 0.0 in /  0 mm
00:28 9.8 °F /  -12.3 °C 6.9 °F /  -13.9 °C 1010.0 in /  34198.6 hPa West 17.7 mph /  28.5 km/h 33.8 mph /  54.4 km/h 82 % 0.0 in /  0 mm
00:34 9.7 °F /  -12.4 °C 7.0 °F /  -13.9 °C 1010.0 in /  34198.6 hPa WSW 20.9 mph /  33.6 km/h 20.9 mph /  33.6 km/h 83 % 0.0 in /  0 mm
00:40 9.6 °F /  -12.4 °C 6.9 °F /  -13.9 °C 1010.4 in /  34212.1 hPa West 14.3 mph /  23 km/h 22.5 mph /  36.2 km/h 83 % 0.0 in /  0 mm
00:46 9.5 °F /  -12.5 °C 6.8 °F /  -14 °C 1010.4 in /  34212.1 hPa West 13.0 mph /  20.9 km/h 29.0 mph /  46.7 km/h 83 % 0.0 in /  0 mm
00:52 9.4 °F /  -12.6 °C 6.7 °F /  -14.1 °C 1010.4 in /  34212.1 hPa West 19.5 mph /  31.4 km/h 27.4 mph /  44.1 km/h 83 % 0.0 in /  0 mm
00:58 9.4 °F /  -12.6 °C 6.5 °F /  -14.2 °C 1010.4 in /  34212.1 hPa WSW 20.9 mph /  33.6 km/h 24.1 mph /  38.8 km/h 82 % 0.0 in /  0 mm
01:04 9.3 °F /  -12.6 °C 6.4 °F /  -14.2 °C 1010.7 in /  34222.3 hPa WNW 9.7 mph /  15.6 km/h 20.9 mph /  33.6 km/h 82 % 0.0 in /  0 mm
01:10 9.3 °F /  -12.6 °C 6.2 °F /  -14.3 °C 1010.7 in /  34222.3 hPa WNW 22.7 mph /  36.5 km/h 27.4 mph /  44.1 km/h 81 % 0.0 in /  0 mm
01:16 9.3 °F /  -12.6 °C 6.4 °F /  -14.2 °C 1011.1 in /  34235.8 hPa WNW 4.7 mph /  7.6 km/h 19.3 mph /  31.1 km/h 82 % 0.0 in /  0 mm
01:22 9.2 °F /  -12.7 °C 6.3 °F /  -14.3 °C 1011.1 in /  34235.8 hPa WSW 19.5 mph /  31.4 km/h 29.0 mph /  46.7 km/h 82 % 0.0 in /  0 mm
01:28 9.3 °F /  -12.6 °C 6.4 °F /  -14.2 °C 1011.4 in /  34246 hPa WNW 17.7 mph /  28.5 km/h 29.0 mph /  46.7 km/h 82 % 0.0 in /  0 mm
01:34 9.1 °F /  -12.7 °C 6.2 °F /  -14.3 °C 1011.4 in /  34246 hPa WNW 11.1 mph /  17.9 km/h 14.5 mph /  23.3 km/h 82 % 0.0 in /  0 mm
01:40 9.1 °F /  -12.7 °C 6.4 °F /  -14.2 °C 1011.4 in /  34246 hPa WNW 13.0 mph /  20.9 km/h 22.5 mph /  36.2 km/h 83 % 0.0 in /  0 mm
01:46 9.1 °F /  -12.7 °C 6.4 °F /  -14.2 °C 1011.7 in /  34256.2 hPa West 7.9 mph /  12.7 km/h 19.3 mph /  31.1 km/h 83 % 0.0 in /  0 mm
01:52 9.1 °F /  -12.7 °C 6.5 °F /  -14.2 °C 1011.7 in /  34256.2 hPa WSW 24.1 mph /  38.8 km/h 24.1 mph /  38.8 km/h 84 % 0.0 in /  0 mm
01:58 9.1 °F /  -12.7 °C 6.5 °F /  -14.2 °C 1011.7 in /  34256.2 hPa West 13.0 mph /  20.9 km/h 29.0 mph /  46.7 km/h 84 % 0.0 in /  0 mm
02:04 9.1 °F /  -12.7 °C 6.7 °F /  -14.1 °C 1012.1 in /  34269.7 hPa WNW 17.7 mph /  28.5 km/h 22.5 mph /  36.2 km/h 85 % 0.0 in /  0 mm
02:10 9.1 °F /  -12.7 °C 6.7 °F /  -14.1 °C 1012.1 in /  34269.7 hPa WSW 11.1 mph /  17.9 km/h 19.3 mph /  31.1 km/h 85 % 0.0 in /  0 mm
02:16 9.1 °F /  -12.7 °C 6.7 °F /  -14.1 °C 1012.1 in /  34269.7 hPa West 9.7 mph /  15.6 km/h 24.1 mph /  38.8 km/h 85 % 0.0 in /  0 mm
02:22 9.1 °F /  -12.7 °C 6.7 °F /  -14.1 °C 1012.4 in /  34279.9 hPa West 22.7 mph /  36.5 km/h 24.1 mph /  38.8 km/h 85 % 0.0 in /  0 mm
02:28 9.0 °F /  -12.8 °C 6.6 °F /  -14.1 °C 1012.4 in /  34279.9 hPa NW 22.7 mph /  36.5 km/h 30.6 mph /  49.2 km/h 85 % 0.0 in /  0 mm
02:34 9.0 °F /  -12.8 °C 6.8 °F /  -14 °C 1012.4 in /  34279.9 hPa WSW 13.0 mph /  20.9 km/h 24.1 mph /  38.8 km/h 86 % 0.0 in /  0 mm
02:40 9.0 °F /  -12.8 °C 6.8 °F /  -14 °C 1012.8 in /  34293.4 hPa WNW 19.5 mph /  31.4 km/h 30.6 mph /  49.2 km/h 86 % 0.0 in /  0 mm
02:46 9.0 °F /  -12.8 °C 6.6 °F /  -14.1 °C 1012.8 in /  34293.4 hPa WNW 14.3 mph /  23 km/h 29.0 mph /  46.7 km/h 85 % 0.0 in /  0 mm
02:52 9.0 °F /  -12.8 °C 6.6 °F /  -14.1 °C 1013.1 in /  34303.6 hPa WNW 17.7 mph /  28.5 km/h 17.7 mph /  28.5 km/h 85 % 0.0 in /  0 mm
02:58 8.9 °F /  -12.8 °C 6.5 °F /  -14.2 °C 1013.1 in /  34303.6 hPa WNW 20.9 mph /  33.6 km/h 45.1 mph /  72.6 km/h 85 % 0.0 in /  0 mm
03:04 8.8 °F /  -12.9 °C 6.4 °F /  -14.2 °C 1013.4 in /  34313.7 hPa West 19.5 mph /  31.4 km/h 25.7 mph /  41.4 km/h 85 % 0.0 in /  0 mm
03:10 8.9 °F /  -12.8 °C 6.5 °F /  -14.2 °C 1013.4 in /  34313.7 hPa West 14.3 mph /  23 km/h 32.2 mph /  51.8 km/h 85 % 0.0 in /  0 mm
03:17 8.9 °F /  -12.8 °C 6.5 °F /  -14.2 °C 1013.4 in /  34313.7 hPa West 17.7 mph /  28.5 km/h 25.7 mph /  41.4 km/h 85 % 0.0 in /  0 mm
03:23 8.8 °F /  -12.9 °C 6.4 °F /  -14.2 °C 1013.4 in /  34313.7 hPa WNW 22.7 mph /  36.5 km/h 29.0 mph /  46.7 km/h 85 % 0.0 in /  0 mm
03:29 8.8 °F /  -12.9 °C 6.4 °F /  -14.2 °C 1013.4 in /  34313.7 hPa West 17.7 mph /  28.5 km/h 25.7 mph /  41.4 km/h 85 % 0.0 in /  0 mm
03:35 8.7 °F /  -12.9 °C 6.3 °F /  -14.3 °C 1013.4 in /  34313.7 hPa WNW 9.7 mph /  15.6 km/h 14.5 mph /  23.3 km/h 85 % 0.0 in /  0 mm
03:41 8.7 °F /  -12.9 °C 6.3 °F /  -14.3 °C 1013.4 in /  34313.7 hPa WNW 13.0 mph /  20.9 km/h 17.7 mph /  28.5 km/h 85 % 0.0 in /  0 mm
03:47 8.7 °F /  -12.9 °C 6.1 °F /  -14.4 °C 1013.8 in /  34327.3 hPa West 13.0 mph /  20.9 km/h 22.5 mph /  36.2 km/h 84 % 0.0 in /  0 mm
03:53 8.7 °F /  -12.9 °C 6.1 °F /  -14.4 °C 1013.8 in /  34327.3 hPa WNW 3.2 mph /  5.1 km/h 17.7 mph /  28.5 km/h 84 % 0.0 in /  0 mm
03:59 8.7 °F /  -12.9 °C 6.1 °F /  -14.4 °C 1013.8 in /  34327.3 hPa WNW 9.7 mph /  15.6 km/h 24.1 mph /  38.8 km/h 84 % 0.0 in /  0 mm
04:05 8.7 °F /  -12.9 °C 6.1 °F /  -14.4 °C 1013.8 in /  34327.3 hPa WSW 14.3 mph /  23 km/h 16.1 mph /  25.9 km/h 84 % 0.0 in /  0 mm
04:11 8.6 °F /  -13 °C 6.0 °F /  -14.4 °C 1014.1 in /  34337.4 hPa WSW 11.1 mph /  17.9 km/h 20.9 mph /  33.6 km/h 84 % 0.0 in /  0 mm
04:17 8.6 °F /  -13 °C 6.0 °F /  -14.4 °C 1014.1 in /  34337.4 hPa WNW 11.1 mph /  17.9 km/h 32.2 mph /  51.8 km/h 84 % 0.0 in /  0 mm
04:23 8.6 °F /  -13 °C 6.0 °F /  -14.4 °C 1014.1 in /  34337.4 hPa WNW 14.3 mph /  23 km/h 19.3 mph /  31.1 km/h 84 % 0.0 in /  0 mm
04:29 8.6 °F /  -13 °C 6.0 °F /  -14.4 °C 1014.4 in /  34347.6 hPa NW 19.5 mph /  31.4 km/h 19.5 mph /  31.4 km/h 84 % 0.0 in /  0 mm
04:35 8.6 °F /  -13 °C 6.0 °F /  -14.4 °C 1014.4 in /  34347.6 hPa West 1.4 mph /  2.3 km/h 16.1 mph /  25.9 km/h 84 % 0.0 in /  0 mm
04:41 8.6 °F /  -13 °C 6.0 °F /  -14.4 °C 1014.4 in /  34347.6 hPa NNW 4.7 mph /  7.6 km/h 27.4 mph /  44.1 km/h 84 % 0.0 in /  0 mm
04:47 8.5 °F /  -13.1 °C 6.1 °F /  -14.4 °C 1014.4 in /  34347.6 hPa West 9.7 mph /  15.6 km/h 12.9 mph /  20.8 km/h 85 % 0.0 in /  0 mm
04:53 8.4 °F /  -13.1 °C 6.0 °F /  -14.4 °C 1014.8 in /  34361.1 hPa WNW 14.3 mph /  23 km/h 14.5 mph /  23.3 km/h 85 % 0.0 in /  0 mm
04:59 8.3 °F /  -13.2 °C 6.1 °F /  -14.4 °C 1014.8 in /  34361.1 hPa West 11.1 mph /  17.9 km/h 17.7 mph /  28.5 km/h 86 % 0.0 in /  0 mm
05:05 8.2 °F /  -13.2 °C 6.0 °F /  -14.4 °C 1014.8 in /  34361.1 hPa West 1.4 mph /  2.3 km/h 11.3 mph /  18.2 km/h 86 % 0.0 in /  0 mm
05:11 8.1 °F /  -13.3 °C 6.1 °F /  -14.4 °C 1015.1 in /  34371.3 hPa WNW 14.3 mph /  23 km/h 14.5 mph /  23.3 km/h 87 % 0.0 in /  0 mm
05:17 8.0 °F /  -13.3 °C 6.1 °F /  -14.4 °C 1015.1 in /  34371.3 hPa West 4.7 mph /  7.6 km/h 17.7 mph /  28.5 km/h 88 % 0.0 in /  0 mm
05:23 7.9 °F /  -13.4 °C 6.2 °F /  -14.3 °C 1015.1 in /  34371.3 hPa WNW 13.0 mph /  20.9 km/h 13.0 mph /  20.9 km/h 89 % 0.0 in /  0 mm
05:29 7.9 °F /  -13.4 °C 6.2 °F /  -14.3 °C 1015.1 in /  34371.3 hPa WNW 7.9 mph /  12.7 km/h 16.1 mph /  25.9 km/h 89 % 0.0 in /  0 mm
05:35 7.8 °F /  -13.4 °C 6.1 °F /  -14.4 °C 1015.5 in /  34384.8 hPa WNW 11.1 mph /  17.9 km/h 12.9 mph /  20.8 km/h 89 % 0.0 in /  0 mm
05:41 7.7 °F /  -13.5 °C 6.2 °F /  -14.3 °C 1015.5 in /  34384.8 hPa WSW 4.7 mph /  7.6 km/h 11.3 mph /  18.2 km/h 90 % 0.0 in /  0 mm
05:47 7.8 °F /  -13.4 °C 6.3 °F /  -14.3 °C 1015.5 in /  34384.8 hPa West 9.7 mph /  15.6 km/h 14.5 mph /  23.3 km/h 90 % 0.0 in /  0 mm
05:53 7.8 °F /  -13.4 °C 6.1 °F /  -14.4 °C 1015.5 in /  34384.8 hPa WNW 9.7 mph /  15.6 km/h 16.1 mph /  25.9 km/h 89 % 0.0 in /  0 mm
05:59 7.9 °F /  -13.4 °C 6.2 °F /  -14.3 °C 1015.5 in /  34384.8 hPa NW 7.9 mph /  12.7 km/h 16.1 mph /  25.9 km/h 89 % 0.0 in /  0 mm
06:05 7.9 °F /  -13.4 °C 6.0 °F /  -14.4 °C 1015.5 in /  34384.8 hPa WNW 6.4 mph /  10.3 km/h 16.1 mph /  25.9 km/h 88 % 0.0 in /  0 mm
06:11 7.9 °F /  -13.4 °C 6.0 °F /  -14.4 °C 1015.5 in /  34384.8 hPa WSW 3.2 mph /  5.1 km/h 11.3 mph /  18.2 km/h 88 % 0.0 in /  0 mm
06:17 7.9 °F /  -13.4 °C 6.0 °F /  -14.4 °C 1015.5 in /  34384.8 hPa NW 3.2 mph /  5.1 km/h 8.0 mph /  12.9 km/h 88 % 0.0 in /  0 mm
06:23 7.8 °F /  -13.4 °C 6.1 °F /  -14.4 °C 1015.8 in /  34395 hPa WNW 7.9 mph /  12.7 km/h 9.7 mph /  15.6 km/h 89 % 0.0 in /  0 mm
06:29 7.8 °F /  -13.4 °C 6.1 °F /  -14.4 °C 1016.1 in /  34405.1 hPa WNW 9.7 mph /  15.6 km/h 11.3 mph /  18.2 km/h 89 % 0.0 in /  0 mm
06:35 7.9 °F /  -13.4 °C 6.2 °F /  -14.3 °C 1016.1 in /  34405.1 hPa NNW 3.2 mph /  5.1 km/h 12.9 mph /  20.8 km/h 89 % 0.0 in /  0 mm
06:41 7.9 °F /  -13.4 °C 6.2 °F /  -14.3 °C 1016.5 in /  34418.7 hPa WNW 1.4 mph /  2.3 km/h 11.3 mph /  18.2 km/h 89 % 0.0 in /  0 mm
06:53 7.9 °F /  -13.4 °C 6.2 °F /  -14.3 °C 1016.5 in /  34418.7 hPa NW 6.4 mph /  10.3 km/h 8.0 mph /  12.9 km/h 89 % 0.0 in /  0 mm
07:05 7.8 °F /  -13.4 °C 6.1 °F /  -14.4 °C 1016.5 in /  34418.7 hPa NW 4.7 mph /  7.6 km/h 6.4 mph /  10.3 km/h 89 % 0.0 in /  0 mm
07:11 7.8 °F /  -13.4 °C 6.3 °F /  -14.3 °C 1016.5 in /  34418.7 hPa West 1.4 mph /  2.3 km/h 8.0 mph /  12.9 km/h 90 % 0.0 in /  0 mm
07:17 7.7 °F /  -13.5 °C 6.2 °F /  -14.3 °C 1016.5 in /  34418.7 hPa WNW 3.2 mph /  5.1 km/h 4.8 mph /  7.7 km/h 90 % 0.0 in /  0 mm
07:23 7.7 °F /  -13.5 °C 6.2 °F /  -14.3 °C 1016.8 in /  34428.8 hPa NW 4.7 mph /  7.6 km/h 6.4 mph /  10.3 km/h 90 % 0.0 in /  0 mm
07:29 7.7 °F /  -13.5 °C 6.2 °F /  -14.3 °C 1016.8 in /  34428.8 hPa WNW 3.2 mph /  5.1 km/h 4.8 mph /  7.7 km/h 90 % 0.0 in /  0 mm
07:35 7.7 °F /  -13.5 °C 6.2 °F /  -14.3 °C 1016.8 in /  34428.8 hPa WNW 1.4 mph /  2.3 km/h 3.2 mph /  5.1 km/h 90 % 0.0 in /  0 mm
07:41 7.6 °F /  -13.6 °C 6.1 °F /  -14.4 °C 1017.2 in /  34442.4 hPa West 1.4 mph /  2.3 km/h 4.8 mph /  7.7 km/h 90 % 0.0 in /  0 mm
07:47 7.6 °F /  -13.6 °C 6.1 °F /  -14.4 °C 1016.8 in /  34428.8 hPa West 1.4 mph /  2.3 km/h 4.8 mph /  7.7 km/h 90 % 0.0 in /  0 mm
07:53 7.6 °F /  -13.6 °C 6.1 °F /  -14.4 °C 1017.2 in /  34442.4 hPa WNW 3.2 mph /  5.1 km/h 3.2 mph /  5.1 km/h 90 % 0.0 in /  0 mm
08:05 7.6 °F /  -13.6 °C 6.1 °F /  -14.4 °C 1017.5 in /  34452.6 hPa West 3.2 mph /  5.1 km/h 6.4 mph /  10.3 km/h 90 % 0.0 in /  0 mm
08:11 7.6 °F /  -13.6 °C 6.1 °F /  -14.4 °C 1017.5 in /  34452.6 hPa WNW 3.2 mph /  5.1 km/h 6.4 mph /  10.3 km/h 90 % 0.0 in /  0 mm
08:17 7.5 °F /  -13.6 °C 6.1 °F /  -14.4 °C 1017.5 in /  34452.6 hPa Calm   3.2 mph /  5.1 km/h 91 % 0.0 in /  0 mm
08:23 7.4 °F /  -13.7 °C 6.0 °F /  -14.4 °C 1017.5 in /  34452.6 hPa West 4.7 mph /  7.6 km/h 6.4 mph /  10.3 km/h 91 % 0.0 in /  0 mm
08:29 7.5 °F /  -13.6 °C 6.1 °F /  -14.4 °C 1017.5 in /  34452.6 hPa WSW 1.4 mph /  2.3 km/h 1.6 mph /  2.6 km/h 91 % 0.0 in /  0 mm
08:35 7.4 °F /  -13.7 °C 6.0 °F /  -14.4 °C 1017.5 in /  34452.6 hPa West 6.4 mph /  10.3 km/h 8.0 mph /  12.9 km/h 91 % 0.0 in /  0 mm
08:41 7.4 °F /  -13.7 °C 6.0 °F /  -14.4 °C 1017.8 in /  34462.7 hPa West 3.2 mph /  5.1 km/h 4.8 mph /  7.7 km/h 91 % 0.0 in /  0 mm
08:47 7.3 °F /  -13.7 °C 6.1 °F /  -14.4 °C 1017.8 in /  34462.7 hPa Calm   3.2 mph /  5.1 km/h 92 % 0.0 in /  0 mm
08:53 7.3 °F /  -13.7 °C 6.1 °F /  -14.4 °C 1017.8 in /  34462.7 hPa Calm   1.6 mph /  2.6 km/h 92 % 0.0 in /  0 mm
08:59 7.2 °F /  -13.8 °C 6.1 °F /  -14.4 °C 1017.8 in /  34462.7 hPa Calm   1.6 mph /  2.6 km/h 93 % 0.0 in /  0 mm
09:17 7.1 °F /  -13.8 °C 6.2 °F /  -14.3 °C 1017.8 in /  34462.7 hPa Calm     94 % 0.0 in /  0 mm
09:23 7.1 °F /  -13.8 °C 6.2 °F /  -14.3 °C 1017.8 in /  34462.7 hPa Calm     94 % 0.0 in /  0 mm
09:29 7.1 °F /  -13.8 °C 6.2 °F /  -14.3 °C 1018.2 in /  34476.3 hPa SW 1.6 mph /  2.6 km/h 1.6 mph /  2.6 km/h 94 % 0.0 in /  0 mm
09:35 7.1 °F /  -13.8 °C 6.2 °F /  -14.3 °C 1018.2 in /  34476.3 hPa Calm     94 % 0.0 in /  0 mm
09:47 7.0 °F /  -13.9 °C 6.1 °F /  -14.4 °C 1018.2 in /  34476.3 hPa Calm   1.6 mph /  2.6 km/h 94 % 0.3 in /  7.62 mm
09:59 7.0 °F /  -13.9 °C 6.3 °F /  -14.3 °C 1018.5 in /  34486.4 hPa Calm   1.6 mph /  2.6 km/h 95 % 0.5 in /  12.7 mm
10:05 7.0 °F /  -13.9 °C 6.3 °F /  -14.3 °C 1018.8 in /  34496.6 hPa Calm   1.6 mph /  2.6 km/h 95 % 0.5 in /  12.7 mm
10:12 7.1 °F /  -13.8 °C 6.4 °F /  -14.2 °C 1018.8 in /  34496.6 hPa Calm   1.6 mph /  2.6 km/h 95 % 0.5 in /  12.7 mm
10:18 6.9 °F /  -13.9 °C 6.2 °F /  -14.3 °C 1018.5 in /  34486.4 hPa Calm   1.6 mph /  2.6 km/h 95 % 0.5 in /  12.7 mm
10:24 6.9 °F /  -13.9 °C 6.2 °F /  -14.3 °C 1018.5 in /  34486.4 hPa Calm   1.6 mph /  2.6 km/h 95 % 0.5 in /  12.7 mm
10:30 6.9 °F /  -13.9 °C 6.2 °F /  -14.3 °C 1018.8 in /  34496.6 hPa East 1.4 mph /  2.3 km/h 3.2 mph /  5.1 km/h 95 % 0.5 in /  12.7 mm
10:36 6.8 °F /  -14 °C 6.1 °F /  -14.4 °C 1018.8 in /  34496.6 hPa Calm   3.2 mph /  5.1 km/h 95 % 0.5 in /  12.7 mm
10:42 6.8 °F /  -14 °C 6.2 °F /  -14.3 °C 1018.5 in /  34486.4 hPa East 1.4 mph /  2.3 km/h 3.2 mph /  5.1 km/h 96 % 0.5 in /  12.7 mm
10:48 6.8 °F /  -14 °C 6.2 °F /  -14.3 °C 1018.8 in /  34496.6 hPa Calm   3.2 mph /  5.1 km/h 96 % 0.5 in /  12.7 mm
10:54 6.9 °F /  -13.9 °C 6.3 °F /  -14.3 °C 1018.8 in /  34496.6 hPa ENE 1.4 mph /  2.3 km/h 1.6 mph /  2.6 km/h 96 % 0.3 in /  7.62 mm
11:00 6.9 °F /  -13.9 °C 6.3 °F /  -14.3 °C 1018.8 in /  34496.6 hPa Calm     96 % 0.3 in /  7.62 mm
11:06 6.9 °F /  -13.9 °C 6.3 °F /  -14.3 °C 1018.8 in /  34496.6 hPa Calm   3.2 mph /  5.1 km/h 96 % 0.3 in /  7.62 mm
11:12 6.9 °F /  -13.9 °C 6.3 °F /  -14.3 °C 1018.8 in /  34496.6 hPa Calm   1.6 mph /  2.6 km/h 96 % 0.0 in /  0 mm
11:18 6.9 °F /  -13.9 °C 6.3 °F /  -14.3 °C 1018.8 in /  34496.6 hPa Calm     96 % 0.3 in /  7.62 mm
11:24 6.9 °F /  -13.9 °C 6.3 °F /  -14.3 °C 1018.8 in /  34496.6 hPa Calm     96 % 0.3 in /  7.62 mm
11:30 6.9 °F /  -13.9 °C 6.3 °F /  -14.3 °C 1018.8 in /  34496.6 hPa SE 3.2 mph /  5.1 km/h 3.2 mph /  5.1 km/h 96 % 0.3 in /  7.62 mm
11:36 6.8 °F /  -14 °C 6.2 °F /  -14.3 °C 1018.8 in /  34496.6 hPa ESE 1.4 mph /  2.3 km/h 3.2 mph /  5.1 km/h 96 % 0.3 in /  7.62 mm
11:42 6.8 °F /  -14 °C 6.2 °F /  -14.3 °C 1018.8 in /  34496.6 hPa SSE 3.2 mph /  5.1 km/h 4.8 mph /  7.7 km/h 96 % 0.3 in /  7.62 mm
11:48 6.8 °F /  -14 °C 6.2 °F /  -14.3 °C 1018.8 in /  34496.6 hPa East 1.4 mph /  2.3 km/h 3.2 mph /  5.1 km/h 96 % 0.3 in /  7.62 mm
11:54 6.9 °F /  -13.9 °C 6.3 °F /  -14.3 °C 1018.5 in /  34486.4 hPa SSW 6.4 mph /  10.3 km/h 8.0 mph /  12.9 km/h 96 % 0.3 in /  7.62 mm
12:00 7.1 °F /  -13.8 °C 6.7 °F /  -14.1 °C 1018.8 in /  34496.6 hPa SW 3.2 mph /  5.1 km/h 6.4 mph /  10.3 km/h 97 % 0.3 in /  7.62 mm
12:06 7.2 °F /  -13.8 °C 6.6 °F /  -14.1 °C 1018.8 in /  34496.6 hPa SW 1.4 mph /  2.3 km/h 3.2 mph /  5.1 km/h 96 % 0.3 in /  7.62 mm
12:12 7.3 °F /  -13.7 °C 6.7 °F /  -14.1 °C 1018.8 in /  34496.6 hPa SW 1.4 mph /  2.3 km/h 4.8 mph /  7.7 km/h 96 % 0.3 in /  7.62 mm
12:19 7.3 °F /  -13.7 °C 6.7 °F /  -14.1 °C 1018.5 in /  34486.4 hPa WSW 6.4 mph /  10.3 km/h 8.0 mph /  12.9 km/h 96 % 0.0 in /  0 mm
12:25 7.3 °F /  -13.7 °C 6.7 °F /  -14.1 °C 1018.5 in /  34486.4 hPa SSW 3.2 mph /  5.1 km/h 9.7 mph /  15.6 km/h 96 % 0.0 in /  0 mm
12:31 7.4 °F /  -13.7 °C 6.8 °F /  -14 °C 1018.5 in /  34486.4 hPa WSW 1.4 mph /  2.3 km/h 8.0 mph /  12.9 km/h 96 % 0.0 in /  0 mm
12:37 7.4 °F /  -13.7 °C 6.8 °F /  -14 °C 1018.2 in /  34476.3 hPa SW 6.4 mph /  10.3 km/h 9.7 mph /  15.6 km/h 96 % 0.0 in /  0 mm
12:43 7.4 °F /  -13.7 °C 6.8 °F /  -14 °C 1018.2 in /  34476.3 hPa WSW 3.2 mph /  5.1 km/h 8.0 mph /  12.9 km/h 96 % 0.3 in /  7.62 mm
12:49 7.4 °F /  -13.7 °C 6.8 °F /  -14 °C 1018.2 in /  34476.3 hPa SSW 7.9 mph /  12.7 km/h 9.7 mph /  15.6 km/h 96 % 0.3 in /  7.62 mm
12:55 7.5 °F /  -13.6 °C 6.9 °F /  -13.9 °C 1018.2 in /  34476.3 hPa SW 6.4 mph /  10.3 km/h 11.3 mph /  18.2 km/h 96 % 0.3 in /  7.62 mm
13:01 7.5 °F /  -13.6 °C 6.9 °F /  -13.9 °C 1018.2 in /  34476.3 hPa SW 7.9 mph /  12.7 km/h 11.3 mph /  18.2 km/h 96 % 0.3 in /  7.62 mm
13:07 7.6 °F /  -13.6 °C 7.0 °F /  -13.9 °C 1018.2 in /  34476.3 hPa SW 6.4 mph /  10.3 km/h 8.0 mph /  12.9 km/h 96 % 0.3 in /  7.62 mm
13:13 7.6 °F /  -13.6 °C 7.0 °F /  -13.9 °C 1018.2 in /  34476.3 hPa WSW 3.2 mph /  5.1 km/h 16.1 mph /  25.9 km/h 96 % 0.3 in /  7.62 mm
13:19 7.6 °F /  -13.6 °C 7.0 °F /  -13.9 °C 1017.8 in /  34462.7 hPa SSW 9.7 mph /  15.6 km/h 11.3 mph /  18.2 km/h 96 % 0.3 in /  7.62 mm
13:25 7.6 °F /  -13.6 °C 7.0 °F /  -13.9 °C 1017.8 in /  34462.7 hPa WSW 11.1 mph /  17.9 km/h 14.5 mph /  23.3 km/h 96 % 0.3 in /  7.62 mm
13:31 7.7 °F /  -13.5 °C 7.1 °F /  -13.8 °C 1017.8 in /  34462.7 hPa WSW 4.7 mph /  7.6 km/h 12.9 mph /  20.8 km/h 96 % 0.3 in /  7.62 mm
13:37 7.7 °F /  -13.5 °C 7.1 °F /  -13.8 °C 1017.8 in /  34462.7 hPa WSW 13.0 mph /  20.9 km/h 13.0 mph /  20.9 km/h 96 % 0.3 in /  7.62 mm
13:43 7.7 °F /  -13.5 °C 7.1 °F /  -13.8 °C 1017.8 in /  34462.7 hPa SW 6.4 mph /  10.3 km/h 14.5 mph /  23.3 km/h 96 % 0.0 in /  0 mm
13:49 7.7 °F /  -13.5 °C 7.1 °F /  -13.8 °C 1017.8 in /  34462.7 hPa WSW 6.4 mph /  10.3 km/h 16.1 mph /  25.9 km/h 96 % 0.0 in /  0 mm
13:55 7.7 °F /  -13.5 °C 7.1 °F /  -13.8 °C 1017.8 in /  34462.7 hPa SW 4.7 mph /  7.6 km/h 8.0 mph /  12.9 km/h 96 % 0.0 in /  0 mm
14:01 7.7 °F /  -13.5 °C 7.1 °F /  -13.8 °C 1017.8 in /  34462.7 hPa SW 7.9 mph /  12.7 km/h 12.9 mph /  20.8 km/h 96 % 0.0 in /  0 mm
14:07 7.7 °F /  -13.5 °C 7.1 °F /  -13.8 °C 1017.8 in /  34462.7 hPa West 6.4 mph /  10.3 km/h 8.0 mph /  12.9 km/h 96 % 0.0 in /  0 mm
14:13 7.7 °F /  -13.5 °C 7.1 °F /  -13.8 °C 1017.5 in /  34452.6 hPa WSW 4.7 mph /  7.6 km/h 14.5 mph /  23.3 km/h 96 % 0.0 in /  0 mm
14:19 7.7 °F /  -13.5 °C 7.1 °F /  -13.8 °C 1017.5 in /  34452.6 hPa WSW 3.2 mph /  5.1 km/h 11.3 mph /  18.2 km/h 96 % 0.0 in /  0 mm
14:25 7.7 °F /  -13.5 °C 7.1 °F /  -13.8 °C 1017.5 in /  34452.6 hPa SSW 3.2 mph /  5.1 km/h 17.7 mph /  28.5 km/h 96 % 0.0 in /  0 mm
14:31 7.7 °F /  -13.5 °C 7.1 °F /  -13.8 °C 1017.5 in /  34452.6 hPa SW 7.9 mph /  12.7 km/h 12.9 mph /  20.8 km/h 96 % 0.0 in /  0 mm
14:37 7.7 °F /  -13.5 °C 7.1 °F /  -13.8 °C 1017.5 in /  34452.6 hPa West 6.4 mph /  10.3 km/h 9.7 mph /  15.6 km/h 96 % 0.0 in /  0 mm
14:43 7.7 °F /  -13.5 °C 7.1 °F /  -13.8 °C 1017.5 in /  34452.6 hPa SW 11.3 mph /  18.2 km/h 11.3 mph /  18.2 km/h 96 % 0.3 in /  7.62 mm
14:49 7.6 °F /  -13.6 °C 7.0 °F /  -13.9 °C 1017.5 in /  34452.6 hPa SW 1.4 mph /  2.3 km/h 9.7 mph /  15.6 km/h 96 % 0.3 in /  7.62 mm
14:55 7.7 °F /  -13.5 °C 7.1 °F /  -13.8 °C 1017.5 in /  34452.6 hPa SSW 7.9 mph /  12.7 km/h 11.3 mph /  18.2 km/h 96 % 0.3 in /  7.62 mm
15:01 7.7 °F /  -13.5 °C 7.1 °F /  -13.8 °C 1017.5 in /  34452.6 hPa WSW 9.7 mph /  15.6 km/h 16.1 mph /  25.9 km/h 96 % 0.3 in /  7.62 mm
15:07 7.7 °F /  -13.5 °C 7.3 °F /  -13.7 °C 1017.5 in /  34452.6 hPa SW 7.9 mph /  12.7 km/h 14.5 mph /  23.3 km/h 97 % 0.3 in /  7.62 mm
15:13 7.7 °F /  -13.5 °C 7.3 °F /  -13.7 °C 1017.5 in /  34452.6 hPa SW 7.9 mph /  12.7 km/h 9.7 mph /  15.6 km/h 97 % 0.3 in /  7.62 mm
15:19 7.8 °F /  -13.4 °C 7.4 °F /  -13.7 °C 1017.5 in /  34452.6 hPa SW 4.7 mph /  7.6 km/h 9.7 mph /  15.6 km/h 97 % 0.3 in /  7.62 mm
15:25 7.8 °F /  -13.4 °C 7.4 °F /  -13.7 °C 1017.2 in /  34442.4 hPa SSW 7.9 mph /  12.7 km/h 12.9 mph /  20.8 km/h 97 % 0.3 in /  7.62 mm
15:31 7.8 °F /  -13.4 °C 7.4 °F /  -13.7 °C 1017.2 in /  34442.4 hPa SW 6.4 mph /  10.3 km/h 14.5 mph /  23.3 km/h 97 % 0.5 in /  12.7 mm
15:37 7.8 °F /  -13.4 °C 7.4 °F /  -13.7 °C 1017.2 in /  34442.4 hPa SW 11.1 mph /  17.9 km/h 16.1 mph /  25.9 km/h 97 % 0.5 in /  12.7 mm
15:43 7.8 °F /  -13.4 °C 7.4 °F /  -13.7 °C 1016.8 in /  34428.8 hPa SSW 9.7 mph /  15.6 km/h 16.1 mph /  25.9 km/h 97 % 0.3 in /  7.62 mm
15:49 7.8 °F /  -13.4 °C 7.4 °F /  -13.7 °C 1016.8 in /  34428.8 hPa SSW 11.1 mph /  17.9 km/h 12.9 mph /  20.8 km/h 97 % 0.3 in /  7.62 mm
15:55 7.8 °F /  -13.4 °C 7.4 °F /  -13.7 °C 1016.8 in /  34428.8 hPa SW 7.9 mph /  12.7 km/h 14.5 mph /  23.3 km/h 97 % 0.3 in /  7.62 mm
16:01 7.8 °F /  -13.4 °C 7.4 °F /  -13.7 °C 1016.8 in /  34428.8 hPa SSW 11.1 mph /  17.9 km/h 16.1 mph /  25.9 km/h 97 % 0.3 in /  7.62 mm
16:07 7.8 °F /  -13.4 °C 7.4 °F /  -13.7 °C 1016.8 in /  34428.8 hPa SSW 4.7 mph /  7.6 km/h 16.1 mph /  25.9 km/h 97 % 0.3 in /  7.62 mm
16:13 7.8 °F /  -13.4 °C 7.4 °F /  -13.7 °C 1016.8 in /  34428.8 hPa SSW 7.9 mph /  12.7 km/h 12.9 mph /  20.8 km/h 97 % 0.3 in /  7.62 mm
16:19 7.8 °F /  -13.4 °C 7.4 °F /  -13.7 °C 1016.8 in /  34428.8 hPa SW 11.1 mph /  17.9 km/h 16.1 mph /  25.9 km/h 97 % 0.3 in /  7.62 mm
16:25 7.9 °F /  -13.4 °C 7.5 °F /  -13.6 °C 1016.5 in /  34418.7 hPa SSW 6.4 mph /  10.3 km/h 14.5 mph /  23.3 km/h 97 % 0.3 in /  7.62 mm
16:31 7.9 °F /  -13.4 °C 7.5 °F /  -13.6 °C 1016.8 in /  34428.8 hPa SW 4.7 mph /  7.6 km/h 9.7 mph /  15.6 km/h 97 % 0.0 in /  0 mm
16:37 7.9 °F /  -13.4 °C 7.5 °F /  -13.6 °C 1016.5 in /  34418.7 hPa SW 7.9 mph /  12.7 km/h 14.5 mph /  23.3 km/h 97 % 0.0 in /  0 mm
16:43 8.0 °F /  -13.3 °C 7.6 °F /  -13.6 °C 1016.5 in /  34418.7 hPa SSW 6.4 mph /  10.3 km/h 12.9 mph /  20.8 km/h 97 % 0.0 in /  0 mm
16:49 8.1 °F /  -13.3 °C 7.7 °F /  -13.5 °C 1016.5 in /  34418.7 hPa SW 6.4 mph /  10.3 km/h 11.3 mph /  18.2 km/h 97 % 0.0 in /  0 mm
16:55 8.1 °F /  -13.3 °C 7.7 °F /  -13.5 °C 1016.5 in /  34418.7 hPa SW 4.7 mph /  7.6 km/h 8.0 mph /  12.9 km/h 97 % 0.0 in /  0 mm
17:01 8.1 °F /  -13.3 °C 7.7 °F /  -13.5 °C 1016.5 in /  34418.7 hPa SW 4.7 mph /  7.6 km/h 6.4 mph /  10.3 km/h 97 % 0.0 in /  0 mm
17:07 8.2 °F /  -13.2 °C 7.8 °F /  -13.4 °C 1016.5 in /  34418.7 hPa SW 3.2 mph /  5.1 km/h 3.2 mph /  5.1 km/h 97 % 0.0 in /  0 mm
17:13 8.3 °F /  -13.2 °C 7.9 °F /  -13.4 °C 1016.5 in /  34418.7 hPa SW 6.4 mph /  10.3 km/h 8.0 mph /  12.9 km/h 97 % 0.3 in /  7.62 mm
17:19 8.4 °F /  -13.1 °C 8.1 °F /  -13.3 °C 1016.5 in /  34418.7 hPa SW 4.7 mph /  7.6 km/h 8.0 mph /  12.9 km/h 98 % 0.3 in /  7.62 mm
17:25 8.6 °F /  -13 °C 8.3 °F /  -13.2 °C 1016.5 in /  34418.7 hPa SW 3.2 mph /  5.1 km/h 6.4 mph /  10.3 km/h 98 % 0.3 in /  7.62 mm
17:31 8.7 °F /  -12.9 °C 8.4 °F /  -13.1 °C 1016.5 in /  34418.7 hPa SW 3.2 mph /  5.1 km/h 8.0 mph /  12.9 km/h 98 % 0.3 in /  7.62 mm
17:37 8.8 °F /  -12.9 °C 8.5 °F /  -13.1 °C 1016.5 in /  34418.7 hPa WNW 1.4 mph /  2.3 km/h 4.8 mph /  7.7 km/h 98 % 0.3 in /  7.62 mm
17:43 8.9 °F /  -12.8 °C 8.6 °F /  -13 °C 1016.5 in /  34418.7 hPa SW 3.2 mph /  5.1 km/h 8.0 mph /  12.9 km/h 98 % 0.3 in /  7.62 mm
17:49 9.2 °F /  -12.7 °C 8.9 °F /  -12.8 °C 1016.5 in /  34418.7 hPa West 3.2 mph /  5.1 km/h 6.4 mph /  10.3 km/h 98 % 0.3 in /  7.62 mm
17:55 9.6 °F /  -12.4 °C 9.3 °F /  -12.6 °C 1016.5 in /  34418.7 hPa West 7.9 mph /  12.7 km/h 11.3 mph /  18.2 km/h 98 % 0.3 in /  7.62 mm
18:01 9.8 °F /  -12.3 °C 9.5 °F /  -12.5 °C 1016.5 in /  34418.7 hPa SW 4.7 mph /  7.6 km/h 17.7 mph /  28.5 km/h 98 % 0.3 in /  7.62 mm
18:07 10.1 °F /  -12.2 °C 9.8 °F /  -12.3 °C 1016.1 in /  34405.1 hPa WSW 9.7 mph /  15.6 km/h 14.5 mph /  23.3 km/h 98 % 0.3 in /  7.62 mm
18:13 10.2 °F /  -12.1 °C 9.9 °F /  -12.3 °C 1016.1 in /  34405.1 hPa West 7.9 mph /  12.7 km/h 19.3 mph /  31.1 km/h 98 % 0.0 in /  0 mm
18:19 10.4 °F /  -12 °C 10.1 °F /  -12.2 °C 1016.1 in /  34405.1 hPa West 17.7 mph /  28.5 km/h 20.9 mph /  33.6 km/h 98 % 0.0 in /  0 mm
18:25 10.6 °F /  -11.9 °C 10.3 °F /  -12.1 °C 1016.1 in /  34405.1 hPa WSW 17.7 mph /  28.5 km/h 20.9 mph /  33.6 km/h 98 % 0.0 in /  0 mm
18:31 10.7 °F /  -11.8 °C 10.2 °F /  -12.1 °C 1016.1 in /  34405.1 hPa West 16.3 mph /  26.2 km/h 20.9 mph /  33.6 km/h 97 % 0.0 in /  0 mm
18:37 10.8 °F /  -11.8 °C 10.3 °F /  -12.1 °C 1016.1 in /  34405.1 hPa West 13.0 mph /  20.9 km/h 25.7 mph /  41.4 km/h 97 % 0.0 in /  0 mm
18:43 10.8 °F /  -11.8 °C 10.3 °F /  -12.1 °C 1016.1 in /  34405.1 hPa West 11.1 mph /  17.9 km/h 19.3 mph /  31.1 km/h 97 % 0.0 in /  0 mm
18:49 10.9 °F /  -11.7 °C 10.3 °F /  -12.1 °C 1016.1 in /  34405.1 hPa West 13.0 mph /  20.9 km/h 19.3 mph /  31.1 km/h 96 % 0.0 in /  0 mm
18:55 10.9 °F /  -11.7 °C 10.3 °F /  -12.1 °C 1016.1 in /  34405.1 hPa West 6.4 mph /  10.3 km/h 17.7 mph /  28.5 km/h 96 % 0.0 in /  0 mm
19:01 10.9 °F /  -11.7 °C 10.3 °F /  -12.1 °C 1016.1 in /  34405.1 hPa West 14.3 mph /  23 km/h 22.5 mph /  36.2 km/h 96 % 0.0 in /  0 mm
19:07 10.9 °F /  -11.7 °C 10.3 °F /  -12.1 °C 1016.1 in /  34405.1 hPa WNW 13.0 mph /  20.9 km/h 17.7 mph /  28.5 km/h 96 % 0.0 in /  0 mm
19:13 10.9 °F /  -11.7 °C 10.3 °F /  -12.1 °C 1016.1 in /  34405.1 hPa West 14.3 mph /  23 km/h 24.1 mph /  38.8 km/h 96 % 0.0 in /  0 mm
19:19 10.9 °F /  -11.7 °C 10.3 °F /  -12.1 °C 1016.5 in /  34418.7 hPa West 14.3 mph /  23 km/h 27.4 mph /  44.1 km/h 96 % 0.0 in /  0 mm
19:25 10.9 °F /  -11.7 °C 10.3 °F /  -12.1 °C 1016.5 in /  34418.7 hPa WSW 14.3 mph /  23 km/h 25.7 mph /  41.4 km/h 96 % 0.0 in /  0 mm
19:31 10.9 °F /  -11.7 °C 10.3 °F /  -12.1 °C 1016.5 in /  34418.7 hPa WNW 14.3 mph /  23 km/h 22.5 mph /  36.2 km/h 96 % 0.0 in /  0 mm
19:37 10.9 °F /  -11.7 °C 10.3 °F /  -12.1 °C 1016.5 in /  34418.7 hPa West 11.1 mph /  17.9 km/h 19.3 mph /  31.1 km/h 96 % 0.0 in /  0 mm
19:43 10.9 °F /  -11.7 °C 10.3 °F /  -12.1 °C 1016.8 in /  34428.8 hPa West 11.1 mph /  17.9 km/h 20.9 mph /  33.6 km/h 96 % 0.0 in /  0 mm
19:49 10.9 °F /  -11.7 °C 10.3 °F /  -12.1 °C 1016.8 in /  34428.8 hPa West 22.7 mph /  36.5 km/h 25.7 mph /  41.4 km/h 96 % 0.0 in /  0 mm
19:55 10.9 °F /  -11.7 °C 10.3 °F /  -12.1 °C 1016.8 in /  34428.8 hPa West 17.7 mph /  28.5 km/h 22.5 mph /  36.2 km/h 96 % 0.0 in /  0 mm
20:01 10.9 °F /  -11.7 °C 10.3 °F /  -12.1 °C 1016.8 in /  34428.8 hPa West 16.3 mph /  26.2 km/h 22.5 mph /  36.2 km/h 96 % 0.3 in /  7.62 mm
20:07 10.8 °F /  -11.8 °C 10.2 °F /  -12.1 °C 1016.5 in /  34418.7 hPa SW 19.5 mph /  31.4 km/h 22.5 mph /  36.2 km/h 96 % 0.3 in /  7.62 mm
20:13 10.9 °F /  -11.7 °C 10.3 °F /  -12.1 °C 1016.8 in /  34428.8 hPa WNW 20.9 mph /  33.6 km/h 30.6 mph /  49.2 km/h 96 % 0.3 in /  7.62 mm
20:19 10.9 °F /  -11.7 °C 10.1 °F /  -12.2 °C 1016.8 in /  34428.8 hPa West 17.7 mph /  28.5 km/h 25.7 mph /  41.4 km/h 95 % 0.3 in /  7.62 mm
20:25 10.9 °F /  -11.7 °C 10.1 °F /  -12.2 °C 1016.8 in /  34428.8 hPa WNW 11.1 mph /  17.9 km/h 20.9 mph /  33.6 km/h 95 % 0.3 in /  7.62 mm
20:31 10.8 °F /  -11.8 °C 10.0 °F /  -12.2 °C 1016.8 in /  34428.8 hPa West 9.7 mph /  15.6 km/h 22.5 mph /  36.2 km/h 95 % 0.3 in /  7.62 mm
20:37 10.8 °F /  -11.8 °C 10.2 °F /  -12.1 °C 1016.8 in /  34428.8 hPa NW 7.9 mph /  12.7 km/h 17.7 mph /  28.5 km/h 96 % 0.3 in /  7.62 mm
20:43 10.8 °F /  -11.8 °C 10.2 °F /  -12.1 °C 1016.5 in /  34418.7 hPa West 13.0 mph /  20.9 km/h 20.9 mph /  33.6 km/h 96 % 0.3 in /  7.62 mm
20:49 10.8 °F /  -11.8 °C 10.2 °F /  -12.1 °C 1016.5 in /  34418.7 hPa West 13.0 mph /  20.9 km/h 24.1 mph /  38.8 km/h 96 % 0.3 in /  7.62 mm
20:55 10.8 °F /  -11.8 °C 10.2 °F /  -12.1 °C 1016.5 in /  34418.7 hPa WSW 20.9 mph /  33.6 km/h 27.4 mph /  44.1 km/h 96 % 0.3 in /  7.62 mm
21:01 10.8 °F /  -11.8 °C 10.0 °F /  -12.2 °C 1016.8 in /  34428.8 hPa West 7.9 mph /  12.7 km/h 20.9 mph /  33.6 km/h 95 % 0.0 in /  0 mm
21:14 10.8 °F /  -11.8 °C 10.0 °F /  -12.2 °C 1016.8 in /  34428.8 hPa West 19.5 mph /  31.4 km/h 27.4 mph /  44.1 km/h 95 % 0.0 in /  0 mm
21:20 10.8 °F /  -11.8 °C 10.0 °F /  -12.2 °C 1016.8 in /  34428.8 hPa West 17.7 mph /  28.5 km/h 20.9 mph /  33.6 km/h 95 % 0.0 in /  0 mm
21:26 10.7 °F /  -11.8 °C 9.9 °F /  -12.3 °C 1016.5 in /  34418.7 hPa WSW 16.3 mph /  26.2 km/h 32.2 mph /  51.8 km/h 95 % 0.0 in /  0 mm
21:32 10.7 °F /  -11.8 °C 9.9 °F /  -12.3 °C 1016.5 in /  34418.7 hPa West 13.0 mph /  20.9 km/h 29.0 mph /  46.7 km/h 95 % 0.0 in /  0 mm
21:38 10.7 °F /  -11.8 °C 9.9 °F /  -12.3 °C 1016.5 in /  34418.7 hPa WSW 24.1 mph /  38.8 km/h 27.4 mph /  44.1 km/h 95 % 0.0 in /  0 mm
21:44 10.6 °F /  -11.9 °C 9.8 °F /  -12.3 °C 1016.8 in /  34428.8 hPa West 30.6 mph /  49.2 km/h 32.2 mph /  51.8 km/h 95 % 0.0 in /  0 mm
21:50 10.6 °F /  -11.9 °C 9.8 °F /  -12.3 °C 1016.5 in /  34418.7 hPa WSW 25.9 mph /  41.7 km/h 25.9 mph /  41.7 km/h 95 % 0.0 in /  0 mm
21:56 10.6 °F /  -11.9 °C 9.8 °F /  -12.3 °C 1016.5 in /  34418.7 hPa West 27.4 mph /  44.1 km/h 33.8 mph /  54.4 km/h 95 % 0.0 in /  0 mm
22:02 10.6 °F /  -11.9 °C 9.8 °F /  -12.3 °C 1016.5 in /  34418.7 hPa West 17.7 mph /  28.5 km/h 27.4 mph /  44.1 km/h 95 % 0.0 in /  0 mm
22:08 10.6 °F /  -11.9 °C 9.8 °F /  -12.3 °C 1016.5 in /  34418.7 hPa West 24.1 mph /  38.8 km/h 32.2 mph /  51.8 km/h 95 % 0.0 in /  0 mm
22:14 10.6 °F /  -11.9 °C 9.7 °F /  -12.4 °C 1016.5 in /  34418.7 hPa WSW 19.5 mph /  31.4 km/h 24.1 mph /  38.8 km/h 94 % 0.0 in /  0 mm
22:20 10.6 °F /  -11.9 °C 9.7 °F /  -12.4 °C 1016.5 in /  34418.7 hPa West 16.3 mph /  26.2 km/h 22.5 mph /  36.2 km/h 94 % 0.0 in /  0 mm
22:26 10.6 °F /  -11.9 °C 9.8 °F /  -12.3 °C 1016.8 in /  34428.8 hPa West 16.3 mph /  26.2 km/h 27.4 mph /  44.1 km/h 95 % 0.0 in /  0 mm
22:32 10.6 °F /  -11.9 °C 9.7 °F /  -12.4 °C 1016.8 in /  34428.8 hPa West 24.1 mph /  38.8 km/h 27.4 mph /  44.1 km/h 94 % 0.0 in /  0 mm
22:38 10.5 °F /  -11.9 °C 9.7 °F /  -12.4 °C 1016.5 in /  34418.7 hPa SW 9.7 mph /  15.6 km/h 29.0 mph /  46.7 km/h 95 % 0.0 in /  0 mm
22:44 10.4 °F /  -12 °C 9.6 °F /  -12.4 °C 1016.5 in /  34418.7 hPa West 14.3 mph /  23 km/h 27.4 mph /  44.1 km/h 95 % 0.0 in /  0 mm
22:50 10.4 °F /  -12 °C 9.6 °F /  -12.4 °C 1016.5 in /  34418.7 hPa WSW 20.9 mph /  33.6 km/h 25.7 mph /  41.4 km/h 95 % 0.0 in /  0 mm
23:02 10.4 °F /  -12 °C 9.6 °F /  -12.4 °C 1016.5 in /  34418.7 hPa West 19.5 mph /  31.4 km/h 33.8 mph /  54.4 km/h 95 % 0.0 in /  0 mm
23:08 10.5 °F /  -11.9 °C 9.6 °F /  -12.4 °C 1016.5 in /  34418.7 hPa West 17.7 mph /  28.5 km/h 33.8 mph /  54.4 km/h 94 % 0.0 in /  0 mm
23:14 10.6 °F /  -11.9 °C 9.7 °F /  -12.4 °C 1016.5 in /  34418.7 hPa WSW 22.7 mph /  36.5 km/h 29.0 mph /  46.7 km/h 94 % 0.0 in /  0 mm
23:32 10.3 °F /  -12.1 °C 9.5 °F /  -12.5 °C 1016.5 in /  34418.7 hPa WSW 19.5 mph /  31.4 km/h 24.1 mph /  38.8 km/h 95 % 0.0 in /  0 mm
23:38 10.3 °F /  -12.1 °C 9.5 °F /  -12.5 °C 1016.5 in /  34418.7 hPa WSW 16.3 mph /  26.2 km/h 27.4 mph /  44.1 km/h 95 % 0.0 in /  0 mm
23:44 10.4 °F /  -12 °C 9.6 °F /  -12.4 °C 1016.5 in /  34418.7 hPa WSW 11.1 mph /  17.9 km/h 20.9 mph /  33.6 km/h 95 % 0.0 in /  0 mm
23:50 10.4 °F /  -12 °C 9.6 °F /  -12.4 °C 1016.5 in /  34418.7 hPa West 24.1 mph /  38.8 km/h 29.0 mph /  46.7 km/h 95 % 0.3 in /  7.62 mm
23:56 10.5 °F /  -11.9 °C 9.6 °F /  -12.4 °C 1016.5 in /  34418.7 hPa West 14.3 mph /  23 km/h 27.4 mph /  44.1 km/h 94 % 0.3 in /  7.62 mm
Meteo18
Compliments of Weather Underground - 4 mb

Script developed by  Jim McMurry - jmcmurry@mwt.net Adapted for the template by  Wim van der Kuil - Leuven-Template.eu

You find our weather info also at:

European Weather Network

Weather Underground

Equipment we use:

Weather-station
Davis Vue

Weather-program
Meteobridge

Weather-server
Raspberry PI 2 B+

Provider
1 and 1

Davis Vue

Meteobridge

Raspberry PI 2 B+

1 and 1